Location: Gniazdowice
(50.2124°N, 20.2673°E)
Time: 00:28:21
(UTC+00:00)

SL-16 R/B - Pass Details

Date: 23 May 2024
Orbit: 985 x 1007 km, 99.7° (Epoch: 18 June)

Event Time Altitude Azimuth Distance (km) Brightness Sun altitude
Rises 00:04:23 0° 134° (SE) 3,726 5.3 -16.5°
Reaches altitude 10° 00:07:00 10° 127° (SE) 2,780 4.7 -16.3°
Maximum altitude 00:12:43 39° 61° (ENE) 1,461 3.9 -16.0°
Drops below altitude 10° 00:18:28 10° 355° (N) 2,794 5.8 -15.6°
Sets 00:21:06 0° 348° (NNW) 3,746 6.4 -15.4°
